Powrót do katalogu

USA 559

AktywnyMilitariaVLEO
NORAD 65705·PAYLOAD·🇺🇸 United States

Wystrzelony Sep 22, 2025 z Vandenberg Space Force Base

Loading…

Następne Przeloty (najbliższe 24 godziny)

TLE

NieaktualneSource: Mike McCants

Epoka: Aug 20, 2026, 01:49 UTC

1 65705U 25213B   26232.07619895 0.00000000  00000-0  00000-0 0    09
2 65705  70.0152 226.5822 0003000 334.7533  25.2467 14.96713510    01

Śledź USA 559 w czasie rzeczywistym z AllMySat

Download on the App Store